����,���ϕ���(m/s),���ϕ���,�ő�u�ԕ���(m/s),�ő啗��������,�C��(��),���x(%),10���Ԉړ��ώZ�J��(mm),1���Ԉړ��ώZ�J��(mm),���J��(mm),�݌v�J��(mm)
2021-08-09T00:00:00+09:00,1.3,��,2.8,���k��,24.9,95.4,0,0,0.5,0.5
2021-08-09T00:01:00+09:00,1.5,���k��,2.8,���k��,24.9,95.4,0,0,0,0.5
2021-08-09T00:02:00+09:00,1.6,���k��,2.8,���k��,24.9,95.5,0,0,0,0.5
2021-08-09T00:03:00+09:00,1.6,���k��,2.8,���k��,24.9,95.6,0,0,0,0.5
2021-08-09T00:04:00+09:00,1.7,���k��,2.8,���k��,24.9,95.6,0,0,0,0.5
2021-08-09T00:05:00+09:00,1.8,���k��,2.8,���k��,25,95.6,0,0,0,0.5
2021-08-09T00:06:00+09:00,1.8,���k��,2.8,���k��,25,95.6,0,0,0,0.5
2021-08-09T00:07:00+09:00,1.9,���k��,2.8,���k��,25,95.5,0,0,0,0.5
2021-08-09T00:08:00+09:00,1.9,��,2.8,���k��,25.1,95.5,0,0,0,0.5
2021-08-09T00:09:00+09:00,1.9,��,2.8,���k��,25.1,95.5,0,0,0,0.5
2021-08-09T00:10:00+09:00,1.9,��,2.8,���쓌,25.1,95.4,0,0,0,0.5
2021-08-09T00:11:00+09:00,1.8,��,2.8,���쓌,25.1,95.3,0,0,0,0.5
2021-08-09T00:12:00+09:00,1.8,��,2.8,���쓌,25.1,95.3,0,0,0,0.5
2021-08-09T00:13:00+09:00,1.7,��,2.8,���쓌,25.1,95.2,0,0,0,0.5
2021-08-09T00:14:00+09:00,1.7,��,2.7,���쓌,25.1,95.1,0,0,0,0.5
2021-08-09T00:15:00+09:00,1.8,��,2.9,���k��,25.1,95.1,0,0,0,0.5
2021-08-09T00:16:00+09:00,1.8,��,2.9,���k��,25.1,95,0,0,0,0.5
2021-08-09T00:17:00+09:00,1.8,��,2.9,���k��,25.1,95.1,0,0,0,0.5
2021-08-09T00:18:00+09:00,1.7,���k��,2.9,���k��,25.1,95.1,0,0,0,0.5
2021-08-09T00:19:00+09:00,1.7,���k��,2.9,���k��,25.1,95.1,0,0,0,0.5
2021-08-09T00:20:00+09:00,1.7,���k��,2.9,���k��,25,94.8,0,0,0,0.5
2021-08-09T00:21:00+09:00,1.7,���k��,2.9,���k��,25,94.9,0,0,0,0.5
2021-08-09T00:22:00+09:00,1.8,�k��,2.9,���k��,24.9,94.8,0,0,0,0.5
2021-08-09T00:23:00+09:00,1.8,�k��,2.9,���k��,24.9,95,0,0,0,0.5
2021-08-09T00:24:00+09:00,1.8,�k��,2.9,���k��,24.9,95,0,0,0,0.5
2021-08-09T00:25:00+09:00,1.7,�k��,2.9,�k��,24.9,95.1,0,0,0,0.5
2021-08-09T00:26:00+09:00,1.6,�k��,2.9,�k��,24.9,95.1,0,0,0,0.5
2021-08-09T00:27:00+09:00,1.4,�k��,2.6,�k��,24.9,95.2,0,0,0,0.5
2021-08-09T00:28:00+09:00,1.4,�k��,2.6,�k��,24.9,95.3,0,0,0,0.5
2021-08-09T00:29:00+09:00,1.3,�k��,2.6,�k��,25,95.5,0,0,0,0.5
2021-08-09T00:30:00+09:00,1.2,�k��,2.5,�k��,25.1,95.5,0,0,0,0.5
2021-08-09T00:31:00+09:00,1,�k��,2.3,�k�k��,25,95.2,0,0,0,0.5
2021-08-09T00:32:00+09:00,0.9,�k��,2.2,�k��,24.9,95.1,0,0,0,0.5
2021-08-09T00:33:00+09:00,0.9,�k��,1.7,�k��,24.9,95.2,0,0,0,0.5
2021-08-09T00:34:00+09:00,0.9,�k��,2,�k�k��,24.9,95.2,0,0,0,0.5
2021-08-09T00:35:00+09:00,0.8,�k��,2,�k�k��,24.9,95.2,0,0,0,0.5
2021-08-09T00:36:00+09:00,0.8,�k��,2,�k�k��,24.9,95.4,0,0,0,0.5
2021-08-09T00:37:00+09:00,0.8,�k��,2,�k�k��,25,95.5,0,0,0,0.5
2021-08-09T00:38:00+09:00,0.8,�k��,2,�k�k��,25,95.3,0,0,0,0.5
2021-08-09T00:39:00+09:00,0.9,�k��,2,�k�k��,25,95.1,0,0,0,0.5
2021-08-09T00:40:00+09:00,0.9,�k��,2,�k�k��,25,95.1,0,0,0,0.5
2021-08-09T00:41:00+09:00,1,�k��,2,�k�k��,25,95.2,0,0,0,0.5
2021-08-09T00:42:00+09:00,0.9,���k��,2,�k�k��,25,95.2,0,0,0,0.5
2021-08-09T00:43:00+09:00,0.9,���k��,2,�k�k��,25,95.3,0,0,0,0.5
2021-08-09T00:44:00+09:00,0.9,���k��,2,���k��,24.9,95,0,0,0,0.5
2021-08-09T00:45:00+09:00,0.9,���k��,2,���k��,24.9,95,0,0,0,0.5
2021-08-09T00:46:00+09:00,0.9,���k��,2,���k��,24.9,95.1,0,0,0,0.5
2021-08-09T00:47:00+09:00,0.9,���k��,2,���k��,24.9,95.1,0,0,0,0.5
2021-08-09T00:48:00+09:00,1,���k��,2.2,�k��,24.9,95.2,0,0,0,0.5
2021-08-09T00:49:00+09:00,1.1,���k��,2.7,�k��,24.9,95.3,0,0,0,0.5
2021-08-09T00:50:00+09:00,1.2,���k��,3,���k��,24.8,95.2,0,0,0,0.5
2021-08-09T00:51:00+09:00,1.3,���k��,3,���k��,24.8,95.2,0,0,0,0.5
2021-08-09T00:52:00+09:00,1.5,���k��,3.2,���k��,24.8,95.3,0,0,0,0.5
2021-08-09T00:53:00+09:00,1.7,���k��,3.3,���k��,24.8,95.3,0,0,0,0.5
2021-08-09T00:54:00+09:00,1.8,���k��,3.3,���k��,24.8,95.4,0,0,0,0.5
2021-08-09T00:55:00+09:00,2,���k��,4.3,�k��,24.8,95.5,0,0,0,0.5
2021-08-09T00:56:00+09:00,2.2,���k��,4.3,�k��,24.8,95.4,0,0,0,0.5
2021-08-09T00:57:00+09:00,2.3,���k��,4.3,�k��,24.8,95.5,0,0,0,0.5
2021-08-09T00:58:00+09:00,2.4,���k��,4.3,�k��,24.8,95.5,0,0,0,0.5
2021-08-09T00:59:00+09:00,2.4,���k��,4.3,�k��,24.8,95.5,0,0,0,0.5
2021-08-09T01:00:00+09:00,2.3,���k��,4.3,�k��,24.8,95.5,0,0,0,0.5
2021-08-09T01:01:00+09:00,2.3,���k��,4.3,�k��,24.8,95.4,0,0,0,0.5
2021-08-09T01:02:00+09:00,2.2,���k��,4.3,�k��,24.7,95.4,0,0,0,0.5
2021-08-09T01:03:00+09:00,2.1,���k��,4.3,�k��,24.7,95.5,0,0,0,0.5
2021-08-09T01:04:00+09:00,2,���k��,4.3,�k��,24.7,95.5,0,0,0,0.5
2021-08-09T01:05:00+09:00,2,���k��,3.5,�k��,24.7,95.5,0,0,0,0.5
2021-08-09T01:06:00+09:00,2,���k��,3.3,���k��,24.6,95.5,0,0,0,0.5
2021-08-09T01:07:00+09:00,2,���k��,3.5,���k��,24.6,95.5,0,0,0,0.5
2021-08-09T01:08:00+09:00,2.1,���k��,3.5,���k��,24.6,95.6,0,0,0,0.5
2021-08-09T01:09:00+09:00,2.1,���k��,3.5,���k��,24.6,95.6,0,0,0,0.5
2021-08-09T01:10:00+09:00,2.2,���k��,3.5,���k��,24.6,95.7,0,0,0,0.5
2021-08-09T01:11:00+09:00,2.3,���k��,4.1,�k��,24.5,95.7,0,0,0,0.5
2021-08-09T01:12:00+09:00,2.4,���k��,4.1,�k��,24.5,95.7,0,0,0,0.5
2021-08-09T01:13:00+09:00,2.5,���k��,4.1,�k��,24.5,95.8,0,0,0,0.5
2021-08-09T01:14:00+09:00,2.6,���k��,4.2,���k��,24.5,95.9,0,0,0,0.5
2021-08-09T01:15:00+09:00,2.7,���k��,4.5,���k��,24.5,95.9,0.5,0.5,0.5,1
2021-08-09T01:16:00+09:00,2.7,���k��,4.5,���k��,24.5,96,0.5,0.5,0.5,1
2021-08-09T01:17:00+09:00,2.8,���k��,4.6,���k��,24.5,96,0.5,0.5,0.5,1
2021-08-09T01:18:00+09:00,2.8,���k��,4.6,���k��,24.6,96,0.5,0.5,0.5,1
2021-08-09T01:19:00+09:00,2.7,���k��,4.6,���k��,24.6,96.1,0.5,0.5,0.5,1
2021-08-09T01:20:00+09:00,2.7,���k��,4.6,���k��,24.6,96.1,0.5,0.5,0.5,1
2021-08-09T01:21:00+09:00,2.5,���k��,4.6,���k��,24.6,96.2,1,1,1,1.5
2021-08-09T01:22:00+09:00,2.3,���k��,4.6,���k��,24.6,96.1,1,1,1,1.5
2021-08-09T01:23:00+09:00,2,���k��,4.6,���k��,24.7,96.2,1,1,1,1.5
2021-08-09T01:24:00+09:00,1.7,���k��,4.6,���k��,24.8,96.5,1,1,1,1.5
2021-08-09T01:25:00+09:00,1.5,���k��,4.6,���k��,24.7,96.2,1,1.5,1.5,2
2021-08-09T01:26:00+09:00,1.3,���k��,4.6,���k��,24.6,96,1,1.5,1.5,2
2021-08-09T01:27:00+09:00,1.2,���k��,4.3,�k��,24.6,96,1,1.5,1.5,2
2021-08-09T01:28:00+09:00,1.1,���k��,2.9,���k��,24.6,96.1,1,1.5,1.5,2
2021-08-09T01:29:00+09:00,1.1,���k��,3.3,���k��,24.6,96.2,1,1.5,1.5,2
2021-08-09T01:30:00+09:00,1.2,���k��,3.9,���k��,24.6,96.2,1,1.5,1.5,2
2021-08-09T01:31:00+09:00,1.4,���k��,3.9,���k��,24.6,96.2,0.5,1.5,1.5,2
2021-08-09T01:32:00+09:00,1.7,���k��,3.9,���k��,24.6,96.2,0.5,1.5,1.5,2
2021-08-09T01:33:00+09:00,2,���k��,3.9,���k��,24.6,96.2,0.5,1.5,1.5,2
2021-08-09T01:34:00+09:00,2.2,���k��,3.9,���k��,24.6,96.2,0.5,1.5,1.5,2
2021-08-09T01:35:00+09:00,2.4,���k��,3.9,���k��,24.6,96.2,0,1.5,1.5,2
2021-08-09T01:36:00+09:00,2.5,���k��,3.9,���k��,24.6,96.2,0,1.5,1.5,2
2021-08-09T01:37:00+09:00,2.5,���k��,3.9,���k��,24.6,96.3,0,1.5,1.5,2
2021-08-09T01:38:00+09:00,2.6,���k��,3.9,���k��,24.6,96.3,0,1.5,1.5,2
2021-08-09T01:39:00+09:00,2.6,���k��,3.9,���k��,24.6,96.3,0,1.5,1.5,2
2021-08-09T01:40:00+09:00,2.4,���k��,3.9,���k��,24.6,96.2,0,1.5,1.5,2
2021-08-09T01:41:00+09:00,2.3,���k��,3.9,���k��,24.6,96.2,0,1.5,1.5,2
2021-08-09T01:42:00+09:00,2.2,���k��,3.9,���k��,24.6,96.3,0,1.5,1.5,2
2021-08-09T01:43:00+09:00,2.1,���k��,3.9,���k��,24.6,96.3,0,1.5,1.5,2
2021-08-09T01:44:00+09:00,2,���k��,3.1,���k��,24.6,96.3,0,1.5,1.5,2
2021-08-09T01:45:00+09:00,1.9,���k��,3,���k��,24.6,96.3,0,1.5,1.5,2
2021-08-09T01:46:00+09:00,1.9,���k��,3,���k��,24.6,96.3,0,1.5,1.5,2
2021-08-09T01:47:00+09:00,2,���k��,3.1,���k��,24.6,96.3,0,1.5,1.5,2
2021-08-09T01:48:00+09:00,2,���k��,3.3,���k��,24.6,96.4,0,1.5,1.5,2
2021-08-09T01:49:00+09:00,2,���k��,3.3,���k��,24.5,96.4,0,1.5,1.5,2
2021-08-09T01:50:00+09:00,2.1,���k��,4,�k��,24.6,96.4,0,1.5,1.5,2
2021-08-09T01:51:00+09:00,2.1,���k��,4,�k��,24.6,96.4,0,1.5,1.5,2
2021-08-09T01:52:00+09:00,2.2,���k��,4,�k��,24.6,96.5,0,1.5,1.5,2
2021-08-09T01:53:00+09:00,2.1,���k��,4,�k��,24.6,96.5,0,1.5,1.5,2
2021-08-09T01:54:00+09:00,2.1,���k��,4,�k��,24.6,96.5,0,1.5,1.5,2
2021-08-09T01:55:00+09:00,2.2,���k��,4,�k��,24.6,96.5,0,1.5,1.5,2
2021-08-09T01:56:00+09:00,2.3,���k��,4,�k��,24.6,96.5,0,1.5,1.5,2
2021-08-09T01:57:00+09:00,2.3,���k��,4,�k��,24.6,96.5,0,1.5,1.5,2
2021-08-09T01:58:00+09:00,2.2,���k��,4,�k��,24.6,96.5,0,1.5,1.5,2
2021-08-09T01:59:00+09:00,2.1,���k��,4,�k��,24.6,96.5,0,1.5,1.5,2
2021-08-09T02:00:00+09:00,2,���k��,3.9,���k��,24.6,96.5,0,1.5,1.5,2
2021-08-09T02:01:00+09:00,2,���k��,3.7,�k��,24.6,96.5,0,1.5,1.5,2
2021-08-09T02:02:00+09:00,1.9,���k��,3.7,�k��,24.6,96.5,0,1.5,1.5,2
2021-08-09T02:03:00+09:00,2,���k��,3.7,�k��,24.6,96.5,0,1.5,1.5,2
2021-08-09T02:04:00+09:00,2,���k��,3.7,�k��,24.6,96.5,0,1.5,1.5,2
2021-08-09T02:05:00+09:00,2,���k��,3.7,�k��,24.6,96.5,0,1.5,1.5,2
2021-08-09T02:06:00+09:00,1.9,���k��,3.5,���k��,24.6,96.5,0,1.5,1.5,2
2021-08-09T02:07:00+09:00,1.8,���k��,3.5,���k��,24.6,96.5,0,1.5,1.5,2
2021-08-09T02:08:00+09:00,1.9,���k��,3.6,�k��,24.6,96.5,0,1.5,1.5,2
2021-08-09T02:09:00+09:00,2,���k��,4.2,���k��,24.6,96.4,0,1.5,1.5,2
2021-08-09T02:10:00+09:00,2.1,���k��,4.2,���k��,24.7,96.4,0,1.5,1.5,2
2021-08-09T02:11:00+09:00,2.2,���k��,4.2,���k��,24.7,96.4,0,1.5,1.5,2
2021-08-09T02:12:00+09:00,2.2,���k��,4.2,���k��,24.7,96.4,0,1.5,1.5,2
2021-08-09T02:13:00+09:00,2.3,���k��,4.2,���k��,24.7,96.3,0,1.5,1.5,2
2021-08-09T02:14:00+09:00,2.3,���k��,4.2,���k��,24.7,96.3,0,1.5,1.5,2
2021-08-09T02:15:00+09:00,2.3,���k��,4.2,���k��,24.7,96.3,0,1,1.5,2
2021-08-09T02:16:00+09:00,2.4,���k��,4.2,���k��,24.7,96.3,0,1,1.5,2
2021-08-09T02:17:00+09:00,2.6,���k��,5.6,���k��,24.7,96.2,0,1,1.5,2
2021-08-09T02:18:00+09:00,2.6,���k��,5.6,���k��,24.7,96.2,0,1,1.5,2
2021-08-09T02:19:00+09:00,2.7,���k��,5.6,���k��,24.7,96.2,0,1,1.5,2
2021-08-09T02:20:00+09:00,2.8,���k��,5.6,���k��,24.7,96.2,0,1,1.5,2
2021-08-09T02:21:00+09:00,3,���k��,5.6,���k��,24.7,96.2,0,0.5,1.5,2
2021-08-09T02:22:00+09:00,3.1,���k��,5.6,���k��,24.8,96.2,0,0.5,1.5,2
2021-08-09T02:23:00+09:00,3.2,���k��,5.6,���k��,24.8,96.1,0,0.5,1.5,2
2021-08-09T02:24:00+09:00,3.3,���k��,5.6,���k��,24.8,96.1,0,0.5,1.5,2
2021-08-09T02:25:00+09:00,3.3,���k��,5.6,���k��,24.8,96.1,0.5,0.5,2,2.5
2021-08-09T02:26:00+09:00,3.5,���k��,5.6,���k��,24.8,96,0.5,0.5,2,2.5
2021-08-09T02:27:00+09:00,3.5,���k��,5.8,�k��,24.8,96.1,1,1,2.5,3
2021-08-09T02:28:00+09:00,3.7,���k��,7,�k��,24.7,96,1.5,1.5,3,3.5
2021-08-09T02:29:00+09:00,4,���k��,7,�k��,24.7,95.9,2,2,3.5,4
2021-08-09T02:30:00+09:00,3.9,���k��,7,�k��,24.6,96,2.5,2.5,4,4.5
2021-08-09T02:31:00+09:00,3.9,���k��,7,�k��,24.6,96.1,2.5,2.5,4,4.5
2021-08-09T02:32:00+09:00,3.9,���k��,7,�k��,24.6,96.1,2.5,2.5,4,4.5
2021-08-09T02:33:00+09:00,3.9,���k��,7,�k��,24.6,96.2,3,3,4.5,5
2021-08-09T02:34:00+09:00,3.9,���k��,7,�k��,24.7,96.2,3,3,4.5,5
2021-08-09T02:35:00+09:00,3.9,���k��,7,�k��,24.6,96.2,2.5,3,4.5,5
2021-08-09T02:36:00+09:00,3.9,���k��,7,�k��,24.6,96.2,2.5,3,4.5,5
2021-08-09T02:37:00+09:00,3.8,���k��,7,�k��,24.6,96.2,2,3,4.5,5
2021-08-09T02:38:00+09:00,3.7,���k��,6.6,���k��,24.6,96.2,1.5,3,4.5,5
2021-08-09T02:39:00+09:00,3.5,���k��,6.1,���k��,24.6,96.3,1,3,4.5,5
2021-08-09T02:40:00+09:00,3.6,���k��,6.1,���k��,24.6,96.3,1,3.5,5,5.5
2021-08-09T02:41:00+09:00,3.6,���k��,6.1,���k��,24.6,96.3,1,3.5,5,5.5
2021-08-09T02:42:00+09:00,3.6,���k��,6.1,���k��,24.6,96.3,1,3.5,5,5.5
2021-08-09T02:43:00+09:00,3.6,���k��,6.1,���k��,24.6,96.4,0.5,3.5,5,5.5
2021-08-09T02:44:00+09:00,3.7,���k��,6.5,���k��,24.6,96.3,1,4,5.5,6
2021-08-09T02:45:00+09:00,3.7,���k��,6.5,���k��,24.6,96.3,1,4,5.5,6
2021-08-09T02:46:00+09:00,3.8,���k��,6.5,���k��,24.6,96.4,1,4,5.5,6
2021-08-09T02:47:00+09:00,3.8,���k��,6.5,���k��,24.6,96.4,1.5,4.5,6,6.5
2021-08-09T02:48:00+09:00,3.7,���k��,6.5,���k��,24.6,96.4,1.5,4.5,6,6.5
2021-08-09T02:49:00+09:00,3.7,���k��,6.5,���k��,24.6,96.4,1.5,4.5,6,6.5
2021-08-09T02:50:00+09:00,3.8,���k��,6.5,���k��,24.6,96.4,1,4.5,6,6.5
2021-08-09T02:51:00+09:00,3.8,���k��,6.5,���k��,24.6,96.5,1.5,5,6.5,7
2021-08-09T02:52:00+09:00,3.8,���k��,6.5,���k��,24.6,96.5,1.5,5,6.5,7
2021-08-09T02:53:00+09:00,3.8,���k��,6.5,���k��,24.6,96.5,1.5,5,6.5,7
2021-08-09T02:54:00+09:00,3.6,���k��,6.5,���k��,24.7,96.5,1,5,6.5,7
2021-08-09T02:55:00+09:00,3.6,���k��,6.5,���k��,24.7,96.5,1,5,6.5,7
2021-08-09T02:56:00+09:00,3.5,���k��,6.5,���k��,24.7,96.4,1,5,6.5,7
2021-08-09T02:57:00+09:00,3.2,���k��,5.8,���k��,24.7,96.3,0.5,5,6.5,7
2021-08-09T02:58:00+09:00,3.1,���k��,5.8,���k��,24.7,96.3,1,5.5,7,7.5
2021-08-09T02:59:00+09:00,3.1,���k��,5.8,���k��,24.7,96.3,1,5.5,7,7.5
2021-08-09T03:00:00+09:00,3,���k��,5.8,���k��,24.8,96.2,1,5.5,7,7.5
2021-08-09T03:01:00+09:00,3,���k��,5.3,���k��,24.8,96.2,0.5,5.5,7,7.5
2021-08-09T03:02:00+09:00,3.1,���k��,6.6,���k��,24.8,96.2,0.5,5.5,7,7.5
2021-08-09T03:03:00+09:00,3.1,���k��,6.6,���k��,24.8,96.1,0.5,5.5,7,7.5
2021-08-09T03:04:00+09:00,3.3,���k��,6.6,���k��,24.8,96.1,0.5,5.5,7,7.5
2021-08-09T03:05:00+09:00,3.4,���k��,6.6,���k��,24.8,96,0.5,5.5,7,7.5
2021-08-09T03:06:00+09:00,3.6,���k��,6.6,���k��,24.8,96,0.5,5.5,7,7.5
2021-08-09T03:07:00+09:00,3.8,���k��,6.6,���k��,24.8,95.9,0.5,5.5,7,7.5
2021-08-09T03:08:00+09:00,4.1,���k��,6.6,���k��,24.8,95.8,0,5.5,7,7.5
2021-08-09T03:09:00+09:00,4.2,���k��,6.6,���k��,24.8,95.8,0,5.5,7,7.5
2021-08-09T03:10:00+09:00,4.3,���k��,6.6,���k��,24.8,95.8,0,5.5,7,7.5
2021-08-09T03:11:00+09:00,4.3,���k��,6.6,���k��,24.8,95.8,0,5.5,7,7.5
2021-08-09T03:12:00+09:00,4.2,���k��,6.3,���k��,24.8,95.8,0,5.5,7,7.5
2021-08-09T03:13:00+09:00,4.3,���k��,6.3,���k��,24.7,95.8,0,5.5,7,7.5
2021-08-09T03:14:00+09:00,4.3,���k��,6.3,���k��,24.7,95.8,0,5.5,7,7.5
2021-08-09T03:15:00+09:00,4.3,���k��,6.4,���k��,24.7,95.8,0,5.5,7,7.5
2021-08-09T03:16:00+09:00,4.3,���k��,6.4,���k��,24.7,95.8,0,5.5,7,7.5
2021-08-09T03:17:00+09:00,4.2,���k��,6.4,���k��,24.7,95.9,0.5,6,7.5,8
2021-08-09T03:18:00+09:00,4.3,���k��,6.4,���k��,24.7,95.9,0.5,6,7.5,8
2021-08-09T03:19:00+09:00,4.3,���k��,6.4,���k��,24.7,95.9,0.5,6,7.5,8
2021-08-09T03:20:00+09:00,4.2,���k��,6.4,���k��,24.7,95.9,0.5,6,7.5,8
2021-08-09T03:21:00+09:00,4.1,���k��,6.4,���k��,24.7,95.9,1,6.5,8,8.5
2021-08-09T03:22:00+09:00,4,���k��,6.4,���k��,24.7,95.9,1.5,7,8.5,9
2021-08-09T03:23:00+09:00,3.9,���k��,6.4,���k��,24.7,95.9,1.5,7,8.5,9
2021-08-09T03:24:00+09:00,3.9,���k��,6.4,���k��,24.7,95.9,2,7.5,9,9.5
2021-08-09T03:25:00+09:00,3.8,���k��,6.2,���k��,24.6,95.9,2.5,7.5,9.5,10
2021-08-09T03:26:00+09:00,3.8,���k��,6.1,���k��,24.6,96,2.5,7.5,9.5,10
2021-08-09T03:27:00+09:00,3.7,���k��,6.1,���k��,24.6,96,2.5,7.5,10,10.5
2021-08-09T03:28:00+09:00,3.6,���k��,5.9,�k��,24.6,96.1,2.5,7,10,10.5
2021-08-09T03:29:00+09:00,3.5,���k��,5.9,�k��,24.6,96.2,2.5,6.5,10,10.5
2021-08-09T03:30:00+09:00,3.6,���k��,6.6,���k��,24.6,96.2,2.5,6,10,10.5
2021-08-09T03:31:00+09:00,3.7,���k��,6.6,���k��,24.6,96.2,2,6,10,10.5
2021-08-09T03:32:00+09:00,3.7,���k��,6.6,���k��,24.6,96.2,1.5,6,10,10.5
2021-08-09T03:33:00+09:00,3.7,���k��,6.6,���k��,24.6,96.2,2,6,10.5,11
2021-08-09T03:34:00+09:00,3.6,���k��,6.6,���k��,24.6,96.3,1.5,6,10.5,11
2021-08-09T03:35:00+09:00,3.7,���k��,6.6,���k��,24.6,96.3,1,6,10.5,11
2021-08-09T03:36:00+09:00,3.6,���k��,6.6,���k��,24.7,96.3,1,6,10.5,11
2021-08-09T03:37:00+09:00,3.7,���k��,6.6,���k��,24.7,96.3,0.5,6,10.5,11
2021-08-09T03:38:00+09:00,3.7,���k��,6.6,���k��,24.7,96.3,0.5,6,10.5,11
2021-08-09T03:39:00+09:00,3.9,���k��,6.6,���k��,24.7,96.3,0.5,6,10.5,11
2021-08-09T03:40:00+09:00,3.9,���k��,6.3,���k��,24.7,96.3,0.5,5.5,10.5,11
2021-08-09T03:41:00+09:00,3.9,���k��,6.3,���k��,24.7,96.3,0.5,5.5,10.5,11
2021-08-09T03:42:00+09:00,4,���k��,6.3,���k��,24.7,96.2,0.5,5.5,10.5,11
2021-08-09T03:43:00+09:00,3.8,���k��,6,���k��,24.8,96.2,0,5.5,10.5,11
2021-08-09T03:44:00+09:00,3.7,���k��,6,���k��,24.8,96.2,0,5,10.5,11
2021-08-09T03:45:00+09:00,3.6,���k��,6,���k��,24.8,96.1,0,5,10.5,11
2021-08-09T03:46:00+09:00,3.5,���k��,6,���k��,24.7,96.1,0,5,10.5,11
2021-08-09T03:47:00+09:00,3.4,���k��,6,���k��,24.7,96.1,0,4.5,10.5,11
2021-08-09T03:48:00+09:00,3.3,���k��,6,���k��,24.7,96,0,4.5,10.5,11
2021-08-09T03:49:00+09:00,3.1,���k��,6,���k��,24.7,96,0,4.5,10.5,11
2021-08-09T03:50:00+09:00,3.2,���k��,6.7,���k��,24.8,96,0,4.5,10.5,11
2021-08-09T03:51:00+09:00,3.3,���k��,7.4,���k��,24.9,96,0,4,10.5,11
2021-08-09T03:52:00+09:00,3.4,���k��,7.4,���k��,24.9,96,0,4,10.5,11
2021-08-09T03:53:00+09:00,3.6,���k��,7.4,���k��,24.9,95.9,0,4,10.5,11
2021-08-09T03:54:00+09:00,3.8,���k��,7.4,���k��,24.9,95.7,0,4,10.5,11
2021-08-09T03:55:00+09:00,4,���k��,7.4,���k��,24.9,95.7,0,4,10.5,11
2021-08-09T03:56:00+09:00,4.2,���k��,7.4,���k��,24.8,95.6,0,4,10.5,11
2021-08-09T03:57:00+09:00,4.3,���k��,7.4,���k��,24.8,95.6,0,4,10.5,11
2021-08-09T03:58:00+09:00,4.4,���k��,7.4,���k��,24.8,95.6,0,3.5,10.5,11
2021-08-09T03:59:00+09:00,4.4,���k��,7.4,���k��,24.8,95.6,0,3.5,10.5,11
2021-08-09T04:00:00+09:00,4.3,���k��,7.4,���k��,24.8,95.7,0,3.5,10.5,11
2021-08-09T04:01:00+09:00,4.2,���k��,6.8,���쓌,25,95.7,0,3.5,10.5,11
2021-08-09T04:02:00+09:00,4,���k��,6.8,���쓌,24.9,95.6,0,3.5,10.5,11
2021-08-09T04:03:00+09:00,3.8,���k��,6.8,���쓌,24.9,95.5,0,3.5,10.5,11
2021-08-09T04:04:00+09:00,3.5,���k��,6.8,���쓌,24.8,95.5,0,3.5,10.5,11
2021-08-09T04:05:00+09:00,3.3,���k��,6.8,���쓌,24.8,95.5,0,3.5,10.5,11
2021-08-09T04:06:00+09:00,3.2,���k��,6.8,���쓌,24.8,95.5,0,3.5,10.5,11
2021-08-09T04:07:00+09:00,3.1,���k��,6.8,���쓌,24.8,95.5,0,3.5,10.5,11
2021-08-09T04:08:00+09:00,3.1,���k��,6.8,���쓌,24.9,95.6,0,3.5,10.5,11
2021-08-09T04:09:00+09:00,3.1,���k��,6.8,���쓌,24.9,95.6,0,3.5,10.5,11
2021-08-09T04:10:00+09:00,3.1,���k��,6.8,���쓌,24.9,95.6,0,3.5,10.5,11
2021-08-09T04:11:00+09:00,2.9,���k��,5.4,�k��,25,95.5,0,3.5,10.5,11
2021-08-09T04:12:00+09:00,2.8,�k��,5.4,�k��,25,95.4,0,3.5,10.5,11
2021-08-09T04:13:00+09:00,2.8,�k��,5.4,�k��,24.9,95.3,0,3.5,10.5,11
2021-08-09T04:14:00+09:00,2.9,�k��,5.4,�k��,24.9,95.3,0.5,4,11,11.5
2021-08-09T04:15:00+09:00,2.9,�k��,5.4,�k��,24.9,95.3,0.5,4,11,11.5
2021-08-09T04:16:00+09:00,2.7,�k��,5.4,�k��,24.9,95.3,0.5,4,11,11.5
2021-08-09T04:17:00+09:00,2.6,���k��,5.4,�k��,24.9,95.3,0.5,3.5,11,11.5
2021-08-09T04:18:00+09:00,2.3,���k��,5.3,�k��,24.9,95.2,0.5,3.5,11,11.5
2021-08-09T04:19:00+09:00,2.2,���k��,5.3,�k��,24.9,95.3,0.5,3.5,11,11.5
2021-08-09T04:20:00+09:00,2,���k��,5.3,�k��,25,95.6,0.5,3.5,11,11.5
2021-08-09T04:21:00+09:00,1.9,���k��,5.3,�k��,24.9,95.3,0.5,3,11,11.5
2021-08-09T04:22:00+09:00,1.8,���k��,5.3,�k��,24.8,95.3,0.5,2.5,11,11.5
2021-08-09T04:23:00+09:00,1.7,���k��,5.3,�k��,24.7,95.3,0.5,2.5,11,11.5
2021-08-09T04:24:00+09:00,1.7,���k��,4,�k��,24.7,95.4,0,2,11,11.5
2021-08-09T04:25:00+09:00,1.7,���k��,4,�k��,24.7,95.6,0.5,2,11.5,12
2021-08-09T04:26:00+09:00,1.9,���k��,4.8,���k��,24.7,95.6,0.5,2,11.5,12
2021-08-09T04:27:00+09:00,2,���k��,4.8,���k��,24.7,95.7,0.5,1.5,11.5,12
2021-08-09T04:28:00+09:00,2.1,���k��,4.8,���k��,24.6,95.8,0.5,1.5,11.5,12
2021-08-09T04:29:00+09:00,2.1,���k��,4.8,���k��,24.6,95.8,0.5,1.5,11.5,12
2021-08-09T04:30:00+09:00,2.1,���k��,4.8,���k��,24.6,95.9,0.5,1.5,11.5,12
2021-08-09T04:31:00+09:00,2.2,���k��,4.8,���k��,24.6,95.9,0.5,1.5,11.5,12
2021-08-09T04:32:00+09:00,2.4,�k��,4.8,���k��,24.6,96,1,2,12,12.5
2021-08-09T04:33:00+09:00,2.6,�k��,4.8,���k��,24.5,96.1,1,1.5,12,12.5
2021-08-09T04:34:00+09:00,2.5,�k��,4.8,���k��,24.5,96.2,1,1.5,12,12.5
2021-08-09T04:35:00+09:00,2.5,�k��,4.8,���k��,24.6,96.3,0.5,1.5,12,12.5
2021-08-09T04:36:00+09:00,2.3,�k��,4.3,�k��,24.5,96.3,0.5,1.5,12,12.5
2021-08-09T04:37:00+09:00,2.3,�k��,5.8,�k��,24.6,96.4,0.5,1.5,12,12.5
2021-08-09T04:38:00+09:00,2.4,�k��,5.8,�k��,24.6,96.4,0.5,1.5,12,12.5
2021-08-09T04:39:00+09:00,2.6,�k��,5.8,�k��,24.6,96.4,0.5,1.5,12,12.5
2021-08-09T04:40:00+09:00,2.6,�k��,5.8,�k��,24.6,96.5,0.5,1.5,12,12.5
2021-08-09T04:41:00+09:00,2.7,�k��,5.8,�k��,24.7,96.5,0.5,1.5,12,12.5
2021-08-09T04:42:00+09:00,2.7,�k��,5.8,�k��,24.7,96.4,0,1.5,12,12.5
2021-08-09T04:43:00+09:00,2.7,�k��,5.8,�k��,24.7,96.5,0,1.5,12,12.5
2021-08-09T04:44:00+09:00,2.7,�k��,5.8,�k��,24.7,96.5,0,1.5,12,12.5
2021-08-09T04:45:00+09:00,2.7,�k��,5.8,�k��,24.8,96.6,0,1.5,12,12.5
2021-08-09T04:46:00+09:00,2.7,�k��,5.8,�k��,24.9,96.6,0,1.5,12,12.5
2021-08-09T04:47:00+09:00,2.6,�k��,4.2,�k��,24.9,96.5,0.5,2,12.5,13
2021-08-09T04:48:00+09:00,2.6,�k��,4.3,�k�k��,24.9,96.4,0.5,2,12.5,13
2021-08-09T04:49:00+09:00,2.5,�k��,4.3,�k�k��,24.9,96.3,0.5,2,12.5,13
2021-08-09T04:50:00+09:00,2.3,�k��,4.3,�k�k��,24.9,96.2,0.5,2,12.5,13
2021-08-09T04:51:00+09:00,2.3,�k��,4.3,�k�k��,25.1,96.3,0.5,2,12.5,13
2021-08-09T04:52:00+09:00,2.4,�k��,4.7,�k�k��,25.1,96.1,0.5,2,12.5,13
2021-08-09T04:53:00+09:00,2.4,�k��,4.7,�k�k��,25.1,96.1,0.5,2,12.5,13
2021-08-09T04:54:00+09:00,2.4,�k��,4.7,�k�k��,25.3,96.1,0.5,2,12.5,13
2021-08-09T04:55:00+09:00,2.5,�k��,6.3,��,25.6,96.1,0.5,2,12.5,13
2021-08-09T04:56:00+09:00,2.7,�k��,7.3,�쐼,26,96,0.5,2,12.5,13
2021-08-09T04:57:00+09:00,2.8,�k��,7.3,�쐼,26.2,95.4,0,2,12.5,13
2021-08-09T04:58:00+09:00,2.9,���k��,7.3,�쐼,26.2,94.2,0,2,12.5,13
2021-08-09T04:59:00+09:00,3,���k��,7.3,�쐼,26.3,92.7,0,2,12.5,13
2021-08-09T05:00:00+09:00,3,���k��,7.3,�쐼,26.3,91.5,0.5,2.5,13,13.5
2021-08-09T05:01:00+09:00,2.9,��,7.3,�쐼,26.3,90.6,0.5,2.5,13,13.5
2021-08-09T05:02:00+09:00,2.9,��,7.3,�쐼,26.2,89.8,0.5,2.5,13,13.5
2021-08-09T05:03:00+09:00,2.9,��,7.3,�쐼,26.3,89.5,0.5,2.5,13,13.5
2021-08-09T05:04:00+09:00,2.8,���쓌,7.3,�쐼,26.4,89.3,0.5,2.5,13,13.5
2021-08-09T05:05:00+09:00,2.8,���쓌,7.3,�쐼,26.3,88.8,0.5,2.5,13,13.5
2021-08-09T05:06:00+09:00,2.6,���쓌,6.4,���k��,26.2,88.6,0.5,2.5,13,13.5
2021-08-09T05:07:00+09:00,2.4,���쓌,6,�쓌,26.3,88.8,0.5,2.5,13,13.5
2021-08-09T05:08:00+09:00,2.3,�쓌,6,�쓌,26.5,88.7,1,3,13.5,14
2021-08-09T05:09:00+09:00,2.4,�쓌,8,��쓌,26.4,88.3,1,3,13.5,14
2021-08-09T05:10:00+09:00,2.6,�쓌,8,��쓌,26.4,88.2,0.5,3,13.5,14
2021-08-09T05:11:00+09:00,2.6,�쓌,8,��쓌,26.5,88,0.5,3,13.5,14
2021-08-09T05:12:00+09:00,2.6,��쓌,8,��쓌,26.4,87.7,0.5,3,13.5,14
2021-08-09T05:13:00+09:00,2.5,��쓌,8,��쓌,26.6,87.6,0.5,3,13.5,14
2021-08-09T05:14:00+09:00,2.5,��쓌,8,��쓌,26.4,86.9,0.5,2.5,13.5,14
2021-08-09T05:15:00+09:00,2.5,�쓌,8,��쓌,26.3,86.9,0.5,2.5,13.5,14
2021-08-09T05:16:00+09:00,2.6,�쓌,8,��쓌,26.2,87.2,0.5,2.5,13.5,14
2021-08-09T05:17:00+09:00,2.5,���쓌,8,��쓌,26.1,87.8,0.5,2.5,13.5,14
2021-08-09T05:18:00+09:00,2.4,��,8,��쓌,26,88.3,0,2.5,13.5,14
2021-08-09T05:19:00+09:00,2.4,��,6.8,��쓌,26,88.6,0,2.5,13.5,14
2021-08-09T05:20:00+09:00,2.4,��,8.7,��,26.1,89.2,0,2.5,13.5,14
2021-08-09T05:21:00+09:00,3,��,14.4,��,26.4,89.3,0,2.5,13.5,14
2021-08-09T05:22:00+09:00,3.1,��,14.4,��,26.5,88.5,0,2.5,13.5,14
2021-08-09T05:23:00+09:00,3.4,��,14.4,��,26.8,87.6,0,2.5,13.5,14
2021-08-09T05:24:00+09:00,3.8,���쓌,14.4,��,27.1,86.1,0,2.5,13.5,14
2021-08-09T05:25:00+09:00,4,�쓌,14.4,��,27.2,84.2,0,2,13.5,14
2021-08-09T05:26:00+09:00,4,�쓌,14.4,��,26.9,83.6,0,2,13.5,14
2021-08-09T05:27:00+09:00,4.2,�쓌,14.4,��,26.8,83.8,0,2,13.5,14
2021-08-09T05:28:00+09:00,4.7,�쓌,14.4,��,27,84.2,0,2,13.5,14
2021-08-09T05:29:00+09:00,4.8,��쓌,14.4,��,26.9,83.7,0,2,13.5,14
2021-08-09T05:30:00+09:00,4.9,��쓌,14.4,��,26.8,83.6,0,2,13.5,14
2021-08-09T05:31:00+09:00,4.6,�쓌,10.9,��,26.7,83.8,0,2,13.5,14
2021-08-09T05:32:00+09:00,4.7,�쓌,10.9,��,26.6,84.4,0,1.5,13.5,14
2021-08-09T05:33:00+09:00,4.9,�쓌,10.9,��,26.7,85,0,1.5,13.5,14
2021-08-09T05:34:00+09:00,4.6,�쓌,10.6,��,27,84.7,0,1.5,13.5,14
2021-08-09T05:35:00+09:00,4.5,�쓌,10.6,��,27.1,84,0,1.5,13.5,14
2021-08-09T05:36:00+09:00,4.4,�쓌,10,���쓌,27.2,83.3,0,1.5,13.5,14
2021-08-09T05:37:00+09:00,4.6,�쓌,10.3,�쓌,27.3,82.4,0,1.5,13.5,14
2021-08-09T05:38:00+09:00,4.2,�쓌,10.3,�쓌,27.2,82,0,1.5,13.5,14
2021-08-09T05:39:00+09:00,4.1,�쓌,10.3,�쓌,27.4,81.8,0,1.5,13.5,14
2021-08-09T05:40:00+09:00,4,�쓌,10.3,�쓌,27.4,80.9,0,1.5,13.5,14
2021-08-09T05:41:00+09:00,3.9,�쓌,10.3,�쓌,27.3,80.7,0,1.5,13.5,14
2021-08-09T05:42:00+09:00,3.5,�쓌,10.3,�쓌,27.2,81.2,0,1.5,13.5,14
2021-08-09T05:43:00+09:00,3,���쓌,10.3,�쓌,27.1,81.6,0,1.5,13.5,14
2021-08-09T05:44:00+09:00,2.9,���쓌,10.3,�쓌,27,82.1,0,1.5,13.5,14
2021-08-09T05:45:00+09:00,2.8,���쓌,10.3,�쓌,26.8,82.3,0,1.5,13.5,14
2021-08-09T05:46:00+09:00,2.6,���쓌,10.3,�쓌,26.7,83.3,0,1.5,13.5,14
2021-08-09T05:47:00+09:00,2.4,���쓌,10,��쐼,26.6,84.4,0,1,13.5,14
2021-08-09T05:48:00+09:00,2.4,���쓌,10,��쐼,26.8,84.8,0,1,13.5,14
2021-08-09T05:49:00+09:00,2.2,���쓌,8,��쓌,27,84.4,0,1,13.5,14
2021-08-09T05:50:00+09:00,1.9,���쓌,5.8,�쓌,27,83.9,0,1,13.5,14
2021-08-09T05:51:00+09:00,2.2,���쓌,8.4,�쓌,26.9,83.8,0,1,13.5,14